PALAPA D

Last updated on Sat Jul 03 2021 10:42:53 GMT+0000 (Coordinated Universal Time)

1 35812U 09046A 21183.42082593 -.00000035 00000-0 00000-0 0 9995 2 35812 1.0161 104.3755 0022537 344.5326 14.2908 0.98747209 43503
UTC large
Height (km)
Speed (km/s)
/
Latitude / Longitude
Inclination (degrees)
Orbital Period (minutes)
Azimuth
Elevation
Range (km)
Doppler Factor

Next 0 passes for location: London (51.5072 / 0.1276)

Sorry there are no passes over London.